This is the latest recevied weather packets stored in our database for station/object VK2KGV-15. If no packets are shown the sender has not sent any weather packets the latest 10 day(s).
| Time | Temp. | Humidity | Pressure | Rain* | Wind** | Luminosity | Snow |
|---|---|---|---|---|---|---|---|
| 1778015958 | 16.11° C | 97% | 1019 hPa | 0 mm | - | - | - |
| 1778014752 | 15.56° C | 97% | 1019.1 hPa | 1.52 mm | - | - | - |
| 1778012339 | 15° C | 96% | 1018.7 hPa | 1.52 mm | - | - | - |
| 1778011133 | 15° C | 96% | 1018.6 hPa | 1.52 mm | - | - | - |
| 1778009927 | 15° C | 96% | 1018.4 hPa | 1.52 mm | - | - | - |
| 1778008118 | 15° C | 96% | 1018.3 hPa | 1.52 mm | - | - | - |
| 1778007515 | 15° C | 96% | 1018.3 hPa | 1.52 mm | - | - | - |
| 1778006912 | 15° C | 95% | 1018.2 hPa | 1.52 mm | - | - | - |
| 1778006309 | 15° C | 95% | 1018 hPa | 1.52 mm | - | - | - |
| 1778005102 | 15.56° C | 95% | 1017.9 hPa | 1.52 mm | - | - | - |
| 1778002690 | 15.56° C | 94% | 1018.1 hPa | 1.52 mm | - | - | - |
| 1778000277 | 16.11° C | 95% | 1018.2 hPa | 1.52 mm | - | - | - |
| 1777999071 | 16.11° C | 95% | 1018.3 hPa | 1.52 mm | - | - | - |
| 1777997262 | 16.11° C | 95% | 1018.5 hPa | 1.52 mm | - | - | - |
| 1777995452 | 16.11° C | 95% | 1018.6 hPa | 1.52 mm | - | - | - |
| 1777994850 | 16.11° C | 95% | 1018.8 hPa | 1.52 mm | - | - | - |
| 1777993040 | 16.67° C | 95% | 1018.9 hPa | 1.52 mm | - | - | - |
| 1777991834 | 16.11° C | 95% | 1019.1 hPa | 1.52 mm | - | - | - |
| 1777989421 | 16.11° C | 94% | 1019.3 hPa | 1.52 mm | - | - | - |
| 1777987009 | 16.11° C | 94% | 1019.2 hPa | 1.52 mm | - | - | - |
| 1777984596 | 16.11° C | 93% | 1019.3 hPa | 1.52 mm | - | - | - |
| 1777982787 | 16.67° C | 93% | 1019.5 hPa | 1.52 mm | - | - | - |
| 1777982184 | 16.67° C | 94% | 1019.6 hPa | 1.52 mm | - | - | - |
| 1777977359 | 16.67° C | 92% | 1019.8 hPa | 1.52 mm | - | - | - |
| 1777976153 | 16.67° C | 92% | 1019.3 hPa | 1.52 mm | - | - | - |
* Rain since midnight (hover to see other rain measurements)
** Current wind speed in m/s (hover to see current wind gust speed)